{"data":{"norad_id":65326,"intl_designator":"2025-189D","name":"STARLINK-34902","alt_names":[],"object_type":"PAYLOAD","status":"ACTIVE","operator":null,"country":"US","launch_date":"2025-08-27","launch_site_code":"AFETR","launch_vehicle":null,"mission":null,"orbit_class":"UNKNOWN","rcs_meters":null,"size_class":null,"mass_kg":null,"dimensions":null,"purposes":["comms"],"wikipedia_slug":null,"has_3d_model":false,"image_url":null,"decayed_at":null,"tle_current":{"epoch":"2026-05-25T03:54:14.084928Z","epoch_age_seconds":54921,"freshness":"FRESH","line1":"1 65326U 25189D   26145.16266302  .00012126  00000+0  42077-3 0  9995","line2":"2 65326  53.1585 211.6435 0001163  79.9230 280.1902 15.30206590 42812","mean_motion":15.3020659,"eccentricity":0.0001163,"inclination_deg":53.1585,"raan_deg":211.6435,"arg_perigee_deg":79.923,"mean_anomaly_deg":280.1902,"bstar":0.00042077,"rev_number":4281,"period_min":94.104940431605,"perigee_km":474.3983503805,"apogee_km":475.99243549509,"semimajor_km":6853.3323929378,"source":"CELESTRAK","updated_at":"2026-05-25T13:38:20.758526Z"}}}